• In United Kingdom
  • List of Countries
  • For 7 days
  • Water Temperature
  • Satellite Maps
  • Weather Map
  • Weather Widgets
  • user-avatar
    Login

    Hourly Weather Wadzhda

    Today, 21 September, Thursday

    Time Temperature Precipitation Wind Pressure Humidity
    00:00 +23°C° 0 mm 1 mps 714 mmHg 51%
    01:00 +23°C° 0 mm 1 mps 714 mmHg 51%
    02:00 +23°C° 0 mm 1 mps 713 mmHg 52%
    03:00 +22°C° 0 mm 1 mps 713 mmHg 52%
    04:00 +22°C° 0 mm 1 mps 713 mmHg 53%
    05:00 +22°C° 0 mm 1 mps 713 mmHg 54%
    06:00 +21°C° 0 mm 1 mps 713 mmHg 56%
    07:00 +23°C° 0 mm 1 mps 714 mmHg 50%
    08:00 +25°C° 0 mm 1 mps 714 mmHg 43%
    09:00 +26°C° 0 mm 2 mps 714 mmHg 36%
    10:00 +28°C° 0 mm 2 mps 714 mmHg 33%
    11:00 +29°C° 0 mm 3 mps 714 mmHg 30%
    12:00 +32°C° 0 mm 4 mps 714 mmHg 29%
    13:00 +30°C° 0 mm 4 mps 714 mmHg 31%
    14:00 +30°C° 0 mm 4 mps 713 mmHg 34%
    15:00 +30°C° 0 mm 4 mps 713 mmHg 36%
    16:00 +29°C° 0 mm 3 mps 713 mmHg 40%
    17:00 +28°C° 0 mm 3 mps 713 mmHg 45%
    18:00 +27°C° 0 mm 2 mps 713 mmHg 50%
    19:00 +26°C° 0 mm 2 mps 713 mmHg 53%
    20:00 +26°C° 0 mm 2 mps 713 mmHg 57%
    21:00 +25°C° 0 mm 1 mps 714 mmHg 60%
    22:00 +25°C° 0 mm 1 mps 714 mmHg 62%
    23:00 +24°C° 0 mm 1 mps 714 mmHg 64%

    Tomorrow, 22 September, Friday

    Time Temperature Precipitation Wind Pressure Humidity
    00:00 +24°C° 0 mm 1 mps 714 mmHg 66%
    01:00 +22°C° 0 mm 0 mps 713 mmHg 67%
    02:00 +21°C° 0 mm 0 mps 713 mmHg 68%
    03:00 +21°C° 0 mm 0 mps 713 mmHg 69%
    04:00 +21°C° 0 mm 0 mps 713 mmHg 68%
    05:00 +23°C° 0 mm 1 mps 713 mmHg 67%
    06:00 +23°C° 0 mm 1 mps 713 mmHg 65%
    07:00 +24°C° 0 mm 1 mps 714 mmHg 59%
    08:00 +25°C° 0 mm 1 mps 714 mmHg 52%
    09:00 +27°C° 0 mm 2 mps 714 mmHg 46%
    10:00 +28°C° 0 mm 2 mps 714 mmHg 42%
    11:00 +29°C° 0 mm 2 mps 715 mmHg 38%
    12:00 +30°C° 0 mm 3 mps 715 mmHg 34%
    13:00 +30°C° 0 mm 3 mps 714 mmHg 33%
    14:00 +32°C° 0 mm 4 mps 714 mmHg 32%
    15:00 +32°C° 0 mm 4 mps 714 mmHg 31%
    16:00 +30°C° 0 mm 4 mps 714 mmHg 37%
    17:00 +29°C° 0 mm 3 mps 714 mmHg 43%
    18:00 +28°C° 0 mm 3 mps 713 mmHg 49%
    19:00 +27°C° 0 mm 2 mps 714 mmHg 54%
    20:00 +26°C° 0 mm 2 mps 714 mmHg 59%
    21:00 +25°C° 0 mm 1 mps 714 mmHg 64%
    22:00 +25°C° 0 mm 1 mps 714 mmHg 64%
    23:00 +24°C° 0 mm 1 mps 714 mmHg 64%

    Day after tomorrow, 23 September, Saturday

    Time Temperature Precipitation Wind Pressure Humidity
    00:00 +24°C° 0 mm 1 mps 714 mmHg 64%
    01:00 +23°C° 0 mm 1 mps 714 mmHg 64%
    02:00 +23°C° 0 mm 1 mps 714 mmHg 64%
    03:00 +23°C° 0 mm 1 mps 714 mmHg 64%
    04:00 +23°C° 0 mm 1 mps 714 mmHg 63%
    05:00 +22°C° 0 mm 1 mps 714 mmHg 62%
    06:00 +22°C° 0 mm 1 mps 714 mmHg 61%
    07:00 +24°C° 0 mm 2 mps 714 mmHg 54%
    08:00 +25°C° 0 mm 2 mps 715 mmHg 47%
    09:00 +27°C° 0 mm 3 mps 715 mmHg 40%
    10:00 +29°C° 0 mm 3 mps 715 mmHg 37%
    11:00 +30°C° 0 mm 4 mps 715 mmHg 34%
    12:00 +32°C° 0 mm 4 mps 715 mmHg 31%
    13:00 +32°C° 0 mm 4 mps 715 mmHg 35%
    14:00 +32°C° 0 mm 4 mps 715 mmHg 38%
    15:00 +32°C° 0 mm 4 mps 714 mmHg 41%
    16:00 +29°C° 0 mm 4 mps 714 mmHg 49%
    17:00 +28°C° 0 mm 3 mps 714 mmHg 57%
    18:00 +27°C° 0 mm 3 mps 714 mmHg 65%
    19:00 +26°C° 0 mm 2 mps 715 mmHg 69%
    20:00 +25°C° 0 mm 2 mps 715 mmHg 74%
    21:00 +25°C° 0 mm 1 mps 716 mmHg 78%
    22:00 +24°C° 0 mm 1 mps 716 mmHg 80%
    23:00 +24°C° 0 mm 1 mps 716 mmHg 81%

    24 September, Sunday

    Time Temperature Precipitation Wind Pressure Humidity
    00:00 +22°C° 0 mm 0 mps 716 mmHg 82%
    01:00 +21°C° 0 mm 0 mps 715 mmHg 83%
    02:00 +21°C° 0 mm 0 mps 715 mmHg 83%
    03:00 +21°C° 0 mm 0 mps 715 mmHg 83%
    04:00 +20°C° 0 mm 0 mps 715 mmHg 83%
    05:00 +20°C° 0 mm 0 mps 715 mmHg 83%
    06:00 +20°C° 0 mm 0 mps 715 mmHg 83%
    07:00 +21°C° 0 mm 0 mps 715 mmHg 76%
    08:00 +23°C° 0 mm 0 mps 716 mmHg 68%
    09:00 +24°C° 0 mm 0 mps 716 mmHg 61%
    10:00 +27°C° 0 mm 1 mps 716 mmHg 54%
    11:00 +29°C° 0 mm 2 mps 717 mmHg 48%
    12:00 +30°C° 0 mm 3 mps 717 mmHg 41%
    13:00 +30°C° 0 mm 3 mps 716 mmHg 41%
    14:00 +32°C° 0 mm 4 mps 716 mmHg 42%
    15:00 +32°C° 0 mm 4 mps 715 mmHg 42%
    16:00 +30°C° 0 mm 4 mps 715 mmHg 48%
    17:00 +29°C° 0 mm 3 mps 715 mmHg 53%
    18:00 +28°C° 0 mm 3 mps 715 mmHg 58%
    19:00 +27°C° 0 mm 2 mps 716 mmHg 63%
    20:00 +26°C° 0 mm 2 mps 716 mmHg 67%
    21:00 +25°C° 0 mm 1 mps 716 mmHg 72%
    22:00 +25°C° 0 mm 1 mps 716 mmHg 73%
    23:00 +24°C° 0 mm 1 mps 716 mmHg 75%

    25 September, Monday

    Time Temperature Precipitation Wind Pressure Humidity
    00:00 +22°C° 0 mm 0 mps 716 mmHg 77%
    01:00 +22°C° 0 mm 0 mps 716 mmHg 77%
    02:00 +21°C° 0 mm 0 mps 715 mmHg 77%
    03:00 +21°C° 0 mm 0 mps 715 mmHg 77%
    04:00 +21°C° 0 mm 0 mps 715 mmHg 76%
    05:00 +20°C° 0 mm 0 mps 715 mmHg 76%
    06:00 +20°C° 0 mm 0 mps 715 mmHg 76%
    07:00 +24°C° 0 mm 1 mps 715 mmHg 67%
    08:00 +26°C° 0 mm 1 mps 716 mmHg 59%
    09:00 +27°C° 0 mm 1 mps 716 mmHg 50%
    10:00 +29°C° 0 mm 2 mps 716 mmHg 45%
    11:00 +30°C° 0 mm 3 mps 716 mmHg 40%
    12:00 +31°C° 0 mm 3 mps 716 mmHg 34%
    13:00 +32°C° 0 mm 4 mps 715 mmHg 34%
    14:00 +32°C° 0 mm 4 mps 715 mmHg 34%
    15:00 +33°C° 0 mm 4 mps 715 mmHg 34%
    16:00 +30°C° 0 mm 3 mps 715 mmHg 38%
    17:00 +29°C° 0 mm 3 mps 714 mmHg 42%
    18:00 +28°C° 0 mm 2 mps 714 mmHg 46%
    19:00 +28°C° 0 mm 2 mps 715 mmHg 49%
    20:00 +27°C° 0 mm 1 mps 715 mmHg 52%
    21:00 +26°C° 0 mm 1 mps 715 mmHg 55%
    22:00 +26°C° 0 mm 1 mps 715 mmHg 55%
    23:00 +23°C° 0 mm 0 mps 715 mmHg 55%

    26 September, Tuesday

    Time Temperature Precipitation Wind Pressure Humidity
    00:00 +23°C° 0 mm 0 mps 715 mmHg 55%
    01:00 +22°C° 0 mm 0 mps 715 mmHg 54%
    02:00 +22°C° 0 mm 0 mps 714 mmHg 52%
    03:00 +21°C° 0 mm 0 mps 714 mmHg 51%
    04:00 +21°C° 0 mm 0 mps 714 mmHg 50%
    05:00 +21°C° 0 mm 0 mps 714 mmHg 50%
    06:00 +21°C° 0 mm 0 mps 714 mmHg 50%
    07:00 +23°C° 0 mm 0 mps 715 mmHg 43%
    08:00 +27°C° 0 mm 1 mps 715 mmHg 37%
    09:00 +29°C° 0 mm 1 mps 716 mmHg 31%
    10:00 +30°C° 0 mm 1 mps 716 mmHg 29%
    11:00 +31°C° 0 mm 2 mps 716 mmHg 26%
    12:00 +31°C° 0 mm 3 mps 716 mmHg 24%
    13:00 +33°C° 0 mm 3 mps 715 mmHg 25%
    14:00 +33°C° 0 mm 4 mps 715 mmHg 25%
    15:00 +33°C° 0 mm 4 mps 715 mmHg 26%
    16:00 +30°C° 0 mm 4 mps 715 mmHg 29%
    17:00 +29°C° 0 mm 3 mps 715 mmHg 32%
    18:00 +28°C° 0 mm 3 mps 715 mmHg 35%
    19:00 +27°C° 0 mm 2 mps 715 mmHg 37%
    20:00 +27°C° 0 mm 2 mps 715 mmHg 39%
    21:00 +26°C° 0 mm 1 mps 716 mmHg 41%
    22:00 +26°C° 0 mm 1 mps 716 mmHg 41%
    23:00 +25°C° 0 mm 1 mps 715 mmHg 42%
    Show more